[[{"header":{"parameterUnit":"m.s-1","parameterCategory":2,"la1":30.2991,"la2":30.254,"lo1":-89.0895,"lo2":-89.0444,"dy":0.0017,"dx":0.0017,"nx":28,"ny":28,"refTime":"2025-08-07T09:00:00:Z","depth":"0","parameterNumber":2,"parameterNumberName":"U-component_of_CURRENTS"},"data":[0,0,0,0,0,0,0,0,0,0,0,0,0,0,0,0,0,0,0,0,0,0,0,0,0,0,0,0,0,0,0,0,0,0,0,0,0,0,0,0,0,0,0,0,0,0,0,0,0,0,0,0,0,0,0,0,0,0,0.333,0.3331,0,0.3394,0.3394,0.3395,0.3369,0.3368,0.3367,0.3365,0.3398,0.34,0.3402,0,0,0,0,0,0,0,0,0,0,0,0,0,0.3263,0.3263,0.333,0.3331,0.3332,0.3394,0.3394,0.3395,0.337,0.3368,0.3366,0.3365,0.3397,0.34,0.3402,0,0,0,0,0,0,0,0,0,0,0,0,0,0.3303,0.3264,0.333,0.3328,0.3329,0.3393,0.3394,0.3395,0.337,0.3368,0.3366,0.3364,0.3397,0.34,0.3403,0.3461,0,0,0.3412,0.3414,0,0,0,0,0,0,0,0,0.3301,0.3306,0.3328,0.3329,0.333,0.3373,0.3383,0.3416,0.337,0.3352,0.3365,0.3363,0.339,0.3393,0.3407,0.3463,0.3464,0.3413,0.3415,0.3416,0.3417,0,0,0,0,0,0,0,0.3298,0.3303,0.3353,0.3329,0.333,0.3351,0.3353,0.3389,0.3379,0.3354,0.3352,0.3363,0.3389,0.3404,0.3408,0.3465,0.3413,0.3415,0.3417,0.3418,0.3604,0.3607,0,0,0,0,0,0,0.3293,0.33,0.3351,0.3355,0.3313,0.3353,0.3356,0.336,0.3379,0.3381,0.3365,0.3362,0.34,0.3404,0.3409,0.3516,0.3416,0.3419,0.3421,0.3601,0.3605,0.3608,0,0,0,0,0,0,0.3291,0.3297,0.3349,0.3331,0.3339,0.3356,0.336,0.3362,0.338,0.3389,0.3389,0.3381,0.3399,0.3404,0.3458,0.3515,0.342,0.3423,0.3598,0.3602,0.3607,0.3706,0,0,0,0,0,0,0.3289,0.3295,0.3299,0.3331,0.334,0.3407,0.3363,0.3365,0.339,0.3387,0.3404,0.3404,0.3397,0.3454,0.3461,0.3517,0.3425,0.3594,0.36,0.3605,0.3699,0.3713,0.3726,0,0,0,0,0,0.3286,0.3304,0.3299,0.3306,0.3344,0.3409,0.3417,0.342,0.3393,0.3424,0.3429,0.3404,0.3495,0.3459,0.3467,0.3525,0.3591,0.3598,0.3605,0.3693,0.371,0.3725,0,0,0,0,0,0,0.3278,0.3305,0.3299,0.3323,0.3371,0.3406,0.3432,0.3433,0.3462,0.3452,0.3444,0.3448,0.352,0.3513,0.3473,0.3598,0.354,0.3549,0.3604,0.3621,0.3634,0.3639,0.3428,0,0,0,0,0,0.3279,0.3297,0.3336,0.3359,0.3382,0.3408,0.3432,0.3442,0.3471,0.348,0.3492,0.3512,0.3559,0.3578,0.3613,0.3681,0.3706,0.3725,0.3738,0.375,0.3762,0.3855,0.3878,0.3631,0.3631,0.3631,0,0,0.328,0.33,0.3308,0.3359,0.3388,0.3444,0.3418,0.3469,0.3514,0.3482,0.3542,0.3564,0.3589,0.3666,0.3697,0.3664,0.3839,0.3758,0.3768,0.3774,0.3865,0.3889,0.391,0.3636,0.3635,0.3634,0,0,0.3314,0.3314,0.335,0.3393,0.345,0.3476,0.3495,0.3544,0.3563,0.3632,0.3625,0.3682,0.3737,0.3776,0.3799,0.3912,0.3911,0.3922,0.3992,0.4083,0.4104,0.4123,0.4205,0.4231,0.3924,0.3924,0.3924,0,0.3316,0.3357,0.3377,0.3433,0.3467,0.3494,0.3551,0.3594,0.3654,0.3688,0.3662,0.3784,0.3795,0.3908,0.394,0.3945,0.3989,0.3924,0.4101,0.4119,0.4137,0.4217,0.4243,0.3929,0.3929,0.3928,0.3928,0,0.3383,0.3418,0.345,0.3518,0.3567,0.3622,0.368,0.3734,0.3753,0.3793,0.3901,0.3935,0.4001,0.4026,0.4014,0.4152,0.4144,0.411,0.4055,0.4168,0.4245,0.4271,0.3937,0.3935,0.3934,0.3932,0,0,0.3384,0.3474,0.3486,0.3524,0.3608,0.3658,0.3747,0.3841,0.3911,0.3971,0.4071,0.415,0.4161,0.419,0.42,0.4275,0.4434,0.4244,0.4246,0.432,0.4645,0.4542,0.456,0.4431,0.4436,0.444,0.4657,0,0.3431,0.3524,0.3566,0.3663,0.3712,0.3767,0.3855,0.3942,0.4011,0.412,0.4179,0.4278,0.4227,0.4275,0.4344,0.4419,0.4504,0.4378,0.4531,0.4535,0.4425,0.4587,0.433,0.4493,0.4682,0.4686,0.4689,0,0.3481,0.3538,0.3622,0.3725,0.3755,0.3821,0.3953,0.4042,0.4194,0.425,0.4351,0.44,0.4534,0.4465,0.4652,0.4576,0.4619,0.4665,0.4673,0.4557,0.448,0.4409,0.4532,0.4388,0.4728,0.4725,0.4722,0,0.3458,0.3574,0.3632,0.3667,0.3796,0.3851,0.3932,0.4077,0.4168,0.4345,0.4433,0.4572,0.4663,0.4752,0.4815,0.4759,0.5014,0.4944,0.4901,0.4894,0.4694,0.466,0.4684,0.5086,0.5085,0.5085,0.5084,0,0.3478,0.3531,0.3624,0.3661,0.376,0.385,0.3979,0.4084,0.4249,0.438,0.4492,0.4616,0.474,0.4876,0.4908,0.4994,0.5091,0.4958,0.496,0.4721,0.469,0.4565,0.4506,0.5093,0.5091,0.5089,0.5088,0,0.345,0.3504,0.3583,0.3706,0.3748,0.3821,0.3986,0.4094,0.4247,0.4426,0.4491,0.4699,0.4877,0.4986,0.5161,0.5112,0.505,0.5199,0.4907,0.4868,0.4636,0.4592,0.4516,0.4388,0.5201,0.52,0.5199,0,0.3444,0.3476,0.3593,0.3646,0.3702,0.3816,0.391,0.4073,0.4183,0.4463,0.4548,0.4783,0.4913,0.5133,0.5122,0.52,0.504,0.4981,0.481,0.4629,0.4584,0.4427,0.4314,0.4606,0.46,0.4596,0.4592,0,0.3446,0.3476,0.3547,0.3643,0.3729,0.3828,0.3961,0.4033,0.4244,0.4383,0.4582,0.4715,0.4913,0.4876,0.4963,0.4957,0.4702,0.4886,0.4783,0.4203,0.3953,0.3825,0.4466,0.4551,0.4555,0.4558,0.456,0.4562,0.3449,0.3488,0.3572,0.3653,0.3743,0.3823,0.3864,0.3999,0.4134,0.429,0.4489,0.4578,0.4623,0.4701,0.4673,0.4415,0.4457,0.4221,0.4218,0.4104,0.3854,0.4403,0.4422,0.4425,0.4428,0.4431,0.4433,0,0.3462,0.3506,0.3584,0.3668,0.3713,0.3779,0.3889,0.3892,0.397,0.4116,0.4237,0.4214,0.4168,0.4151,0.3959,0.376,0.3593,0.3636,0.3349,0.3299,0.3864,0.3704,0.3463,0.3463,0.3463,0.3463,0.3464,0.3464,0.3482,0.3538,0.3562,0.361,0.365,0.3656,0.3676,0.3684,0.3735,0.369,0.3625,0.3677,0.3721,0.3659,0.3399,0.3288,0.3024,0.2853,0.2926,0.33,0.3352,0.3402,0.3238,0.2903,0.2903,0.2166,0.2161,0.2157]},{"header":{"parameterUnit":"m.s-1","parameterCategory":2,"la1":30.2991,"la2":30.254,"lo1":-89.0895,"lo2":-89.0444,"dy":0.0017,"dx":0.0017,"nx":28,"ny":28,"refTime":"2025-08-07T09:00:00:Z","depth":"0","parameterNumber":3,"parameterNumberName":"V-component_of_CURRENTS"},"data":[0,0,0,0,0,0,0,0,0,0,0,0,0,0,0,0,0,0,0,0,0,0,0,0,0,0,0,0,0,0,0,0,0,0,0,0,0,0,0,0,0,0,0,0,0,0,0,0,0,0,0,0,0,0,0,0,0,0,0.0187,0.0187,0,0.0155,0.0155,0.0154,0.0123,0.0122,0.0122,0.0122,0.0074,0.0073,0.0072,0,0,0,0,0,0,0,0,0,0,0,0,0,0.0194,0.0194,0.0187,0.0187,0.0186,0.0155,0.0155,0.0154,0.0123,0.0122,0.0122,0.0122,0.0074,0.0073,0.0072,0,0,0,0,0,0,0,0,0,0,0,0,0,0.0179,0.0194,0.0187,0.0167,0.0165,0.0155,0.0155,0.0154,0.0123,0.0122,0.0122,0.0121,0.0074,0.0073,0.0072,0.0074,0,0,0.0067,0.0067,0,0,0,0,0,0,0,0,0.018,0.0179,0.0171,0.0169,0.0166,0.0143,0.014,0.0127,0.0123,0.0138,0.0122,0.0121,0.0096,0.0093,0.0088,0.0072,0.007,0.0067,0.0066,0.0066,0.0065,0,0,0,0,0,0,0,0.0181,0.018,0.0174,0.017,0.0168,0.0151,0.0148,0.0137,0.012,0.0137,0.0135,0.0132,0.0095,0.0089,0.0086,0.0069,0.0067,0.0066,0.0065,0.0065,0.005,0.005,0,0,0,0,0,0,0.0188,0.0181,0.0175,0.0173,0.0172,0.0151,0.0149,0.015,0.012,0.0116,0.0133,0.0131,0.0092,0.0088,0.0084,0.0096,0.0066,0.0064,0.0064,0.0049,0.005,0.005,0,0,0,0,0,0,0.0189,0.0188,0.0176,0.0176,0.0174,0.0152,0.0154,0.015,0.0144,0.0117,0.0112,0.0132,0.0091,0.0086,0.0078,0.0094,0.0064,0.0062,0.0049,0.005,0.005,0.0114,0,0,0,0,0,0,0.0189,0.0189,0.0192,0.0177,0.0174,0.0182,0.0155,0.015,0.0144,0.0141,0.0115,0.011,0.009,0.0081,0.0077,0.0091,0.0061,0.0048,0.0049,0.005,0.0111,0.0116,0.0121,0,0,0,0,0,0.0189,0.0204,0.0193,0.0192,0.018,0.0182,0.018,0.0161,0.0145,0.0152,0.0129,0.011,0.0083,0.008,0.0076,0.009,0.0048,0.0049,0.005,0.0109,0.0115,0.0121,0,0,0,0,0,0,0.0209,0.0202,0.0189,0.02,0.0194,0.0178,0.0182,0.0166,0.0153,0.0148,0.0117,0.0112,0.0107,0.009,0.0087,0.0087,0.0062,0.0062,0.0108,0.0114,0.0119,0.0143,0.006,0,0,0,0,0,0.0215,0.0223,0.0212,0.022,0.0219,0.0199,0.0196,0.0185,0.0171,0.0165,0.0145,0.0124,0.0109,0.0105,0.0088,0.0092,0.0093,0.0097,0.0102,0.0107,0.0122,0.0135,0.0144,0.0054,0.0054,0.0054,0,0,0.0224,0.0221,0.0224,0.0224,0.0216,0.0233,0.0197,0.0199,0.0211,0.0162,0.017,0.0139,0.0112,0.0114,0.0111,0.0103,0.0133,0.0108,0.0112,0.0126,0.0137,0.0146,0.0154,0.0054,0.0054,0.0054,0,0,0.0257,0.0245,0.0267,0.0268,0.0264,0.0255,0.0259,0.0246,0.0238,0.0238,0.0204,0.0186,0.0166,0.0153,0.0143,0.0167,0.0155,0.0156,0.0208,0.022,0.0229,0.0236,0.0253,0.0261,0.0165,0.0165,0.0165,0,0.0268,0.0294,0.0273,0.0298,0.0308,0.0271,0.0302,0.0292,0.0276,0.0282,0.025,0.0227,0.0189,0.0205,0.02,0.018,0.0187,0.0189,0.0229,0.0236,0.0242,0.0258,0.0266,0.0168,0.0167,0.0167,0.0167,0,0.032,0.0341,0.0355,0.0375,0.0382,0.0401,0.0388,0.0388,0.0366,0.0359,0.0361,0.0311,0.0304,0.028,0.024,0.0267,0.0259,0.0231,0.0219,0.0256,0.0269,0.0277,0.0172,0.0171,0.017,0.0169,0,0,0.0354,0.0387,0.0393,0.0421,0.0426,0.0443,0.0458,0.0476,0.0509,0.0468,0.0515,0.0448,0.0421,0.0406,0.0359,0.0354,0.0381,0.0312,0.0311,0.0339,0.0421,0.0385,0.0389,0.0364,0.0366,0.0367,0.0416,0,0.0404,0.0472,0.0471,0.0534,0.0571,0.0549,0.0581,0.0587,0.0582,0.0616,0.0561,0.0584,0.0472,0.0481,0.045,0.041,0.0403,0.0371,0.0373,0.0373,0.0345,0.0397,0.0374,0.0413,0.0423,0.0424,0.0425,0,0.0462,0.0503,0.0575,0.0634,0.0649,0.068,0.0732,0.0758,0.0781,0.0781,0.0774,0.0743,0.0726,0.0631,0.0576,0.0564,0.0494,0.0449,0.045,0.0402,0.0351,0.0375,0.0426,0.0248,0.0436,0.0435,0.0434,0,0.0514,0.0578,0.0641,0.0659,0.0715,0.0746,0.078,0.0813,0.087,0.0906,0.0964,0.0912,0.0939,0.083,0.0704,0.0653,0.0659,0.0582,0.0486,0.0484,0.0457,0.0449,0.0344,0.055,0.0549,0.0549,0.0549,0,0.0574,0.0628,0.0674,0.0713,0.081,0.082,0.093,0.095,0.1024,0.1138,0.1065,0.1156,0.0992,0.0963,0.0795,0.0681,0.0731,0.0517,0.05,0.0477,0.0471,0.0307,0.0201,0.0551,0.0551,0.055,0.055,0,0.0628,0.0651,0.0738,0.0809,0.0839,0.0915,0.104,0.1129,0.1179,0.1331,0.1362,0.1376,0.1348,0.1171,0.1043,0.0844,0.0606,0.0653,0.0636,0.0615,0.0313,0.0212,0.0101,0.0029,0.055,0.055,0.0549,0,0.0664,0.0712,0.0816,0.0885,0.0924,0.1037,0.1132,0.1202,0.131,0.1482,0.1576,0.1608,0.1664,0.1452,0.1125,0.086,0.0653,0.0627,0.0499,0.0314,0.0189,0.0106,0.0048,0.0496,0.0496,0.0495,0.0494,0,0.0745,0.0776,0.0851,0.0992,0.1096,0.1227,0.1363,0.1467,0.1589,0.1744,0.1946,0.2017,0.183,0.1571,0.1178,0.0958,0.0482,0.0603,0.0423,0.0153,0.0048,-0.0033,0.0448,0.0488,0.0489,0.0489,0.049,0.049,0.0808,0.0879,0.0977,0.1109,0.1237,0.1398,0.1525,0.1697,0.1908,0.2163,0.2214,0.2376,0.1928,0.1407,0.1098,0.0459,0.0466,0.0231,0.0134,0.0075,-0.0034,0.0432,0.0436,0.0436,0.0436,0.0437,0.0437,0,0.0887,0.0964,0.1094,0.1252,0.1402,0.1451,0.1671,0.1823,0.2095,0.2362,0.2565,0.2412,0.1891,0.1316,0.0445,0.0044,-0.0101,-0.0174,-0.0306,-0.0336,0.0097,0.0051,-0.0043,-0.0043,-0.0043,-0.0043,-0.0042,-0.0042,0.0934,0.1057,0.1116,0.1353,0.1473,0.1676,0.1803,0.2056,0.2276,0.2584,0.2687,0.2724,0.2179,0.0734,-0.0199,-0.0384,-0.0658,-0.0726,-0.0828,-0.0564,-0.0534,-0.0506,-0.0574,-0.0798,-0.0799,-0.1224,-0.1228,-0.1232]}],[{"header":{"parameterUnit":"m.s-1","parameterCategory":2,"la1":30.2991,"la2":30.254,"lo1":-89.0895,"lo2":-89.0444,"dy":0.0017,"dx":0.0017,"nx":28,"ny":28,"refTime":"2025-08-07T09:00:00:Z","depth":"2","parameterNumber":2,"parameterNumberName":"U-component_of_CURRENTS"},"data":[0,0,0,0,0,0,0,0,0,0,0,0,0,0,0,0,0,0,0,0,0,0,0,0,0,0,0,0,0,0,0,0,0,0,0,0,0,0,0,0,0,0,0,0,0,0,0,0,0,0,0,0,0,0,0,0,0,0,0.2824,0.2824,0,0.2851,0.2851,0.2851,0.2847,0.2847,0.2846,0.2846,0.2844,0.2844,0.2844,0,0,0,0,0,0,0,0,0,0,0,0,0,0.2781,0.2782,0.2824,0.2824,0.2825,0.2851,0.2851,0.2851,0.2847,0.2847,0.2846,0.2846,0.2844,0.2844,0.2844,0,0,0,0,0,0,0,0,0,0,0,0,0,0.28,0.2782,0.2824,0.2829,0.283,0.2851,0.2851,0.2851,0.2847,0.2847,0.2846,0.2846,0.2844,0.2844,0.2844,0.285,0,0,0.2845,0.2845,0,0,0,0,0,0,0,0,0.2799,0.2801,0.2827,0.2828,0.2829,0.2848,0.2835,0.285,0.2847,0.2837,0.2846,0.2846,0.2845,0.2845,0.2846,0.285,0.2849,0.2845,0.2845,0.2845,0.2845,0,0,0,0,0,0,0,0.2798,0.28,0.2831,0.2828,0.2829,0.2834,0.2836,0.2838,0.2839,0.2838,0.2838,0.2847,0.2845,0.2846,0.2846,0.2849,0.2845,0.2845,0.2845,0.2845,0.2947,0.2949,0,0,0,0,0,0,0.2801,0.2799,0.283,0.2832,0.2817,0.2835,0.2837,0.284,0.2839,0.284,0.2847,0.2846,0.2846,0.2846,0.2846,0.2909,0.2845,0.2845,0.2845,0.2944,0.2947,0.295,0,0,0,0,0,0,0.28,0.2803,0.2829,0.2819,0.2823,0.2836,0.2839,0.284,0.2854,0.2847,0.2847,0.2861,0.2846,0.2846,0.2865,0.2907,0.2845,0.2845,0.2941,0.2945,0.2949,0.2998,0,0,0,0,0,0,0.2798,0.2802,0.2809,0.2819,0.2824,0.2852,0.284,0.2841,0.2861,0.2861,0.286,0.2858,0.2846,0.2865,0.2865,0.2906,0.2845,0.2938,0.2943,0.2947,0.2993,0.3003,0.3012,0,0,0,0,0,0.2796,0.2807,0.2809,0.2813,0.2831,0.2853,0.2856,0.2862,0.2862,0.2873,0.2876,0.2859,0.2898,0.2866,0.2866,0.2908,0.2935,0.2941,0.2947,0.2989,0.3001,0.3012,0,0,0,0,0,0,0.2792,0.2808,0.281,0.2825,0.2843,0.2854,0.287,0.2873,0.2884,0.2886,0.2875,0.2875,0.2918,0.2908,0.2874,0.2958,0.2921,0.2927,0.2954,0.2965,0.2974,0.299,0.2845,0,0,0,0,0,0.2795,0.2807,0.2824,0.2837,0.285,0.2863,0.2875,0.2879,0.2891,0.2896,0.2894,0.2909,0.2942,0.2946,0.2966,0.2992,0.3016,0.3028,0.3038,0.3045,0.3063,0.3141,0.3158,0.2969,0.2969,0.2969,0,0,0.2795,0.2809,0.2814,0.2838,0.2853,0.2881,0.2869,0.2894,0.2921,0.2894,0.2927,0.2941,0.296,0.3002,0.3021,0.2994,0.3112,0.3053,0.3059,0.3072,0.3149,0.3167,0.3183,0.2973,0.2973,0.2972,0,0,0.2806,0.2819,0.2833,0.2854,0.2884,0.2901,0.2913,0.2932,0.2946,0.2978,0.2983,0.3016,0.3044,0.3067,0.3085,0.3159,0.3167,0.3177,0.3223,0.3298,0.3314,0.3329,0.3377,0.3395,0.3171,0.3171,0.3171,0,0.2809,0.2829,0.2843,0.2868,0.2889,0.2915,0.2941,0.2969,0.299,0.3015,0.2999,0.3087,0.3081,0.3162,0.3185,0.3179,0.322,0.317,0.3309,0.3324,0.3338,0.3384,0.3404,0.3174,0.3174,0.3174,0.3173,0,0.2828,0.2853,0.287,0.2911,0.2935,0.2966,0.3005,0.3034,0.3058,0.309,0.317,0.3178,0.3234,0.3243,0.3229,0.3336,0.3333,0.3317,0.3274,0.336,0.3403,0.3422,0.3179,0.3178,0.3177,0.3176,0,0,0.2813,0.2872,0.2877,0.2895,0.296,0.2974,0.3042,0.3106,0.3171,0.3201,0.3283,0.3329,0.3352,0.3376,0.3379,0.3426,0.3535,0.3413,0.3416,0.345,0.3704,0.359,0.3599,0.3552,0.3556,0.3559,0.3692,0,0.2828,0.287,0.2902,0.295,0.2976,0.3024,0.3098,0.3159,0.3223,0.3311,0.3355,0.3445,0.3404,0.3446,0.3492,0.3546,0.3591,0.35,0.3627,0.363,0.3509,0.362,0.3317,0.3402,0.371,0.3714,0.3716,0,0.2834,0.2863,0.2906,0.2975,0.2994,0.3041,0.3149,0.3215,0.3356,0.3413,0.3509,0.3562,0.366,0.3605,0.3741,0.3695,0.3706,0.3723,0.3729,0.3621,0.3553,0.337,0.3425,0.3748,0.3745,0.3743,0.3741,0,0.28,0.286,0.2892,0.2912,0.3007,0.3046,0.3114,0.3251,0.3326,0.3497,0.3574,0.3708,0.3778,0.3849,0.3866,0.3837,0.3995,0.3957,0.3862,0.3853,0.3619,0.3582,0.4045,0.4045,0.4045,0.4044,0.4044,0,0.2797,0.2816,0.2881,0.29,0.2972,0.3036,0.3145,0.3247,0.3401,0.351,0.3631,0.3726,0.3846,0.393,0.3942,0.3966,0.4063,0.3902,0.3896,0.3625,0.359,0.3901,0.3883,0.4049,0.4048,0.4047,0.4046,0,0.2746,0.2796,0.2829,0.2918,0.2961,0.3006,0.3149,0.3226,0.3392,0.3536,0.3598,0.3779,0.3912,0.3988,0.4105,0.4045,0.4087,0.4051,0.3711,0.3661,0.388,0.3863,0.401,0.4008,0.4006,0.4004,0.4002,0,0.2724,0.2739,0.2824,0.2858,0.2902,0.2985,0.3061,0.3219,0.33,0.3544,0.3602,0.3789,0.3872,0.4004,0.3975,0.4006,0.4064,0.3702,0.3579,0.3906,0.3885,0.3871,0.3858,0.3292,0.3285,0.3279,0.3274,0,0.268,0.2711,0.2747,0.2816,0.288,0.2925,0.3036,0.3092,0.3279,0.339,0.3539,0.3633,0.3781,0.3679,0.3708,0.3672,0.3685,0.3582,0.4051,0.3334,0.3235,0.3212,0.3221,0.3221,0.3227,0.323,0.3233,0.3235,0.2646,0.2659,0.2714,0.2765,0.2819,0.2835,0.2841,0.2936,0.3019,0.3132,0.3322,0.3357,0.343,0.3335,0.3241,0.3174,0.3425,0.3257,0.3273,0.3295,0.3175,0.3077,0.301,0.3014,0.3018,0.3021,0.3023,0,0.2598,0.2626,0.266,0.2698,0.2677,0.2754,0.2796,0.2746,0.2758,0.2893,0.2967,0.2767,0.2718,0.2807,0.2625,0.2615,0.2567,0.2509,0.2419,0.2474,0.2523,0.236,0.1981,0.1978,0.1974,0.1971,0,0,0.2577,0.2584,0.2591,0.2542,0.2559,0.2466,0.2447,0.2401,0.2429,0.2377,0.2383,0.2589,0.2732,0.2319,0.2267,0.2094,0.2262,0.2012,0.2857,0.2808,0.2852,0.2974,0.2789,0,0,0,0,0]},{"header":{"parameterUnit":"m.s-1","parameterCategory":2,"la1":30.2991,"la2":30.254,"lo1":-89.0895,"lo2":-89.0444,"dy":0.0017,"dx":0.0017,"nx":28,"ny":28,"refTime":"2025-08-07T09:00:00:Z","depth":"2","parameterNumber":3,"parameterNumberName":"V-component_of_CURRENTS"},"data":[0,0,0,0,0,0,0,0,0,0,0,0,0,0,0,0,0,0,0,0,0,0,0,0,0,0,0,0,0,0,0,0,0,0,0,0,0,0,0,0,0,0,0,0,0,0,0,0,0,0,0,0,0,0,0,0,0,0,0.0073,0.0073,0,0.004,0.004,0.004,0.0012,0.0011,0.0011,0.0011,-0.0031,-0.0032,-0.0033,0,0,0,0,0,0,0,0,0,0,0,0,0,0.0081,0.0081,0.0073,0.0073,0.0072,0.004,0.004,0.0039,0.0012,0.0011,0.0011,0.0011,-0.0031,-0.0032,-0.0033,0,0,0,0,0,0,0,0,0,0,0,0,0,0.0065,0.0081,0.0073,0.0055,0.0053,0.0041,0.004,0.0039,0.0012,0.0011,0.0011,0.0011,-0.0031,-0.0032,-0.0033,-0.0034,0,0,-0.0037,-0.0038,0,0,0,0,0,0,0,0,0.0066,0.0065,0.0058,0.0056,0.0054,0.003,0.0027,0.0015,0.0012,0.0027,0.0011,0.001,-0.0011,-0.0014,-0.002,-0.0036,-0.0037,-0.0037,-0.0038,-0.0039,-0.0039,0,0,0,0,0,0,0,0.0067,0.0066,0.006,0.0058,0.0055,0.0038,0.0036,0.0025,0.001,0.0026,0.0024,0.0021,-0.0012,-0.0019,-0.0021,-0.0038,-0.0037,-0.0039,-0.0039,-0.004,-0.0058,-0.0057,0,0,0,0,0,0,0.0075,0.0067,0.0061,0.0059,0.006,0.0039,0.0036,0.0038,0.001,0.0006,0.0021,0.002,-0.0016,-0.0019,-0.0023,-0.0011,-0.0039,-0.004,-0.0041,-0.0058,-0.0057,-0.0057,0,0,0,0,0,0,0.0075,0.0075,0.0062,0.0062,0.0059,0.0039,0.0041,0.0037,0.0032,0.0007,0.0002,0.002,-0.0017,-0.0021,-0.0028,-0.0013,-0.0041,-0.0042,-0.0058,-0.0058,-0.0057,0.0004,0,0,0,0,0,0,0.0076,0.0075,0.0079,0.0063,0.006,0.0065,0.0042,0.0037,0.0031,0.0029,0.0005,0.0,-0.0017,-0.0025,-0.0029,-0.0016,-0.0043,-0.0059,-0.0058,-0.0057,0.0001,0.0006,0.0011,0,0,0,0,0,0.0076,0.0089,0.0079,0.0078,0.0066,0.0066,0.0063,0.0046,0.0032,0.0038,0.0018,0.0001,-0.0024,-0.0026,-0.003,-0.0017,-0.0059,-0.0058,-0.0057,-0.0001,0.0005,0.001,0,0,0,0,0,0,0.0095,0.0087,0.0076,0.0086,0.0079,0.0062,0.0064,0.005,0.0039,0.0034,0.0007,0.0002,-0.0001,-0.0018,-0.002,-0.0022,-0.0045,-0.0045,-0.0,0.0005,0.001,0.0031,-0.0044,0,0,0,0,0,0.0101,0.0108,0.0096,0.0103,0.0102,0.0082,0.0078,0.0068,0.0055,0.0049,0.0032,0.0012,-0.0001,-0.0005,-0.0021,-0.0018,-0.0038,-0.0014,-0.0009,-0.0005,0.0009,-0.0006,-0.0001,-0.0055,-0.0055,-0.0055,0,0,0.0109,0.0106,0.0109,0.0107,0.0098,0.0111,0.0079,0.008,0.0091,0.0047,0.0054,0.0026,0.0001,0.0003,0.0,-0.0008,-0.0004,-0.0004,-0.0,0.0011,-0.0004,0.0001,0.0006,-0.0054,-0.0054,-0.0054,0,0,0.0138,0.0128,0.0146,0.0147,0.0141,0.0131,0.0135,0.0121,0.0115,0.0114,0.0085,0.0069,0.005,0.0038,0.0028,0.0049,0.0018,0.004,0.0087,0.0073,0.0077,0.0081,0.0051,0.0052,0.0047,0.0047,0.0047,0,0.0148,0.0171,0.0151,0.0172,0.0181,0.0146,0.0174,0.0163,0.0149,0.0154,0.0126,0.0099,0.0069,0.0079,0.008,0.0061,0.0043,0.007,0.008,0.0084,0.0087,0.0055,0.0055,0.005,0.0049,0.0049,0.0049,0,0.0194,0.0212,0.0224,0.024,0.0246,0.0262,0.025,0.025,0.023,0.0222,0.0219,0.0173,0.0161,0.0143,0.0116,0.0127,0.0102,0.0085,0.007,0.0096,0.006,0.0059,0.0054,0.0053,0.0052,0.0051,0,0,0.0223,0.0252,0.0257,0.0283,0.0286,0.0302,0.0315,0.0329,0.0354,0.0315,0.0343,0.0294,0.0264,0.025,0.021,0.0192,0.018,0.0152,0.015,0.013,0.014,0.0103,0.0097,0.0167,0.0168,0.0168,0.0103,0,0.0267,0.0327,0.0327,0.0384,0.0417,0.0398,0.0424,0.0428,0.0419,0.0435,0.038,0.0388,0.0307,0.0306,0.0271,0.0217,0.0183,0.0199,0.0112,0.0109,0.0079,0.0097,0.0122,0.0065,0.0102,0.0101,0.0101,0,0.0317,0.0353,0.0419,0.0474,0.0487,0.0512,0.0553,0.0576,0.0578,0.0573,0.0552,0.0512,0.0479,0.0406,0.031,0.0326,0.0235,0.0177,0.0173,0.0121,0.0071,0.0046,0.0061,0.0099,0.0099,0.01,0.01,0,0.036,0.0421,0.048,0.0497,0.0546,0.0573,0.06,0.0619,0.0665,0.067,0.0701,0.0633,0.0623,0.0507,0.0359,0.0345,0.0248,0.0214,0.0087,0.0082,0.0078,0.0073,0.0137,0.0137,0.0137,0.0137,0.0138,0,0.0415,0.0463,0.0506,0.0541,0.0625,0.0635,0.0723,0.0736,0.0781,0.0866,0.0782,0.082,0.065,0.0566,0.0409,0.0247,0.0279,0.0102,0.007,0.0097,0.0095,0.0107,0.0104,0.0135,0.0136,0.0136,0.0136,0,0.0456,0.0481,0.0558,0.0621,0.0649,0.0713,0.0815,0.0883,0.091,0.1015,0.1028,0.0974,0.0873,0.0677,0.0498,0.033,0.017,0.0094,0.0125,0.0099,-0.0003,-0.0002,-0.0036,-0.0038,-0.004,-0.0041,-0.0042,0,0.0484,0.0524,0.062,0.0683,0.0716,0.0811,0.0888,0.0943,0.103,0.1119,0.1182,0.1112,0.1079,0.0779,0.0486,0.0205,0.0163,0.0024,-0.0005,0.001,-0.0017,-0.0014,-0.0011,0.0006,0.0005,0.0005,0.0004,0,0.0539,0.0567,0.0635,0.0761,0.0851,0.097,0.1083,0.117,0.1261,0.1346,0.1437,0.1417,0.1139,0.0861,0.0455,0.0262,0.0072,0.0005,0.0033,0.0044,0.0044,0.0019,0.0022,0.0,0.0001,0.0001,0.0001,0.0001,0.058,0.064,0.0729,0.0852,0.0964,0.1114,0.1231,0.1358,0.1508,0.164,0.1602,0.1573,0.1248,0.0739,0.0401,0.0043,0.0058,-0.0078,-0.0074,-0.007,-0.0055,-0.0057,-0.0119,-0.0119,-0.0119,-0.012,-0.012,0,0.064,0.0709,0.082,0.0972,0.1104,0.1157,0.1355,0.1471,0.1658,0.1743,0.1795,0.148,0.1159,0.0794,0.0266,-0.0058,-0.0074,-0.016,-0.0106,-0.01,-0.0095,-0.0079,-0.0151,-0.0152,-0.0153,-0.0154,0,0,0.0675,0.0785,0.0841,0.1058,0.1173,0.1361,0.1484,0.1648,0.1751,0.1827,0.1804,0.171,0.1271,0.0881,0.0449,0.0154,0.0101,0.0092,0.015,0.027,0.0279,-0.0018,0.0016,0,0,0,0,0]}],[{"header":{"parameterUnit":"m.s-1","parameterCategory":2,"la1":30.2991,"la2":30.254,"lo1":-89.0895,"lo2":-89.0444,"dy":0.0017,"dx":0.0017,"nx":28,"ny":28,"refTime":"2025-08-07T09:00:00:Z","depth":"4","parameterNumber":2,"parameterNumberName":"U-component_of_CURRENTS"},"data":[0,0,0,0,0,0,0,0,0,0,0,0,0,0,0,0,0,0,0,0,0,0,0,0,0,0,0,0,0,0,0,0,0,0,0,0,0,0,0,0,0,0,0,0,0,0,0,0,0,0,0,0,0,0,0,0,0,0,0.1803,0.1804,0,0.184,0.184,0.1841,0.1897,0.1898,0.1899,0.19,0.1956,0.1956,0.1957,0,0,0,0,0,0,0,0,0,0,0,0,0,0.1745,0.1745,0.1803,0.1804,0.1804,0.184,0.184,0.1841,0.1896,0.1898,0.1899,0.1901,0.1956,0.1956,0.1957,0,0,0,0,0,0,0,0,0,0,0,0,0,0.1773,0.1746,0.1803,0.1838,0.1841,0.184,0.184,0.1841,0.1896,0.1898,0.19,0.1901,0.1955,0.1956,0.1957,0.1925,0,0,0.1958,0.1959,0,0,0,0,0,0,0,0,0.1771,0.1775,0.1832,0.1835,0.1839,0.1867,0.184,0.1871,0.1896,0.1873,0.19,0.1902,0.1928,0.1931,0.1931,0.1928,0.193,0.1958,0.1959,0.1959,0.1959,0,0,0,0,0,0,0,0.1769,0.1773,0.1816,0.1833,0.1837,0.1839,0.1845,0.1846,0.1889,0.1875,0.188,0.1887,0.193,0.193,0.1933,0.1931,0.1958,0.1959,0.1959,0.196,0.2032,0.2033,0,0,0,0,0,0,0.1768,0.1772,0.1815,0.1817,0.1811,0.1839,0.1846,0.1855,0.1889,0.1896,0.1885,0.1889,0.1928,0.1932,0.1935,0.2002,0.1959,0.196,0.196,0.203,0.2032,0.2034,0,0,0,0,0,0,0.1767,0.1772,0.1813,0.1796,0.1802,0.1839,0.1848,0.1855,0.1895,0.1896,0.1904,0.1924,0.193,0.1934,0.1973,0.2001,0.196,0.196,0.2028,0.2031,0.2033,0.2072,0,0,0,0,0,0,0.1765,0.1771,0.1795,0.1796,0.1803,0.1835,0.1847,0.1854,0.1895,0.1902,0.1931,0.1936,0.1931,0.1972,0.1973,0.2001,0.1961,0.2026,0.2029,0.2032,0.2068,0.2075,0.2081,0,0,0,0,0,0.1763,0.1777,0.1795,0.1802,0.1829,0.1836,0.184,0.187,0.1896,0.1913,0.1942,0.1937,0.1992,0.1973,0.1975,0.2004,0.2025,0.2029,0.2032,0.2066,0.2074,0.2081,0,0,0,0,0,0,0.1764,0.1784,0.1805,0.1826,0.1845,0.1847,0.187,0.1889,0.1924,0.1945,0.1949,0.1955,0.2003,0.1998,0.1978,0.2036,0.2011,0.2014,0.2036,0.2043,0.2049,0.2061,0.1961,0,0,0,0,0,0.1774,0.1796,0.181,0.1834,0.1845,0.1866,0.1882,0.1902,0.1923,0.1943,0.1964,0.199,0.2009,0.2025,0.204,0.2062,0.2082,0.2086,0.2092,0.2097,0.211,0.2179,0.2192,0.2045,0.2045,0.2045,0,0,0.1783,0.1797,0.1813,0.1837,0.1855,0.187,0.1881,0.1913,0.1937,0.194,0.1994,0.2014,0.2022,0.2056,0.2076,0.206,0.2147,0.2102,0.2106,0.2116,0.2184,0.2198,0.2211,0.2048,0.2047,0.2047,0,0,0.1792,0.1825,0.1841,0.1856,0.1889,0.1899,0.1917,0.1944,0.1975,0.2015,0.2031,0.2074,0.2098,0.2113,0.212,0.217,0.218,0.2179,0.2215,0.2281,0.2294,0.2306,0.2334,0.2348,0.2178,0.2178,0.2178,0,0.1808,0.1824,0.1848,0.1861,0.1879,0.1916,0.1933,0.196,0.2002,0.2034,0.2045,0.2116,0.2125,0.2166,0.2187,0.2184,0.2216,0.2181,0.229,0.2302,0.2313,0.234,0.2354,0.218,0.218,0.218,0.218,0,0.1809,0.184,0.1849,0.1882,0.1905,0.1927,0.1961,0.2004,0.205,0.208,0.2153,0.2173,0.2222,0.2226,0.2221,0.2301,0.2295,0.2292,0.2269,0.233,0.2354,0.2369,0.2184,0.2183,0.2182,0.2182,0,0,0.1794,0.1843,0.185,0.1874,0.192,0.1935,0.1987,0.2038,0.2091,0.2145,0.2212,0.2251,0.2292,0.2304,0.2312,0.236,0.2456,0.2366,0.2368,0.2391,0.2593,0.2417,0.2415,0.2483,0.2486,0.2489,0.2572,0,0.1792,0.182,0.1847,0.1889,0.1905,0.1958,0.2003,0.2064,0.2125,0.2201,0.2251,0.2323,0.2312,0.2356,0.2404,0.2457,0.25,0.2433,0.2534,0.2537,0.237,0.2428,0.2499,0.2583,0.2586,0.2589,0.259,0,0.1771,0.1797,0.1832,0.1899,0.1915,0.1954,0.2044,0.2093,0.22,0.2256,0.234,0.2392,0.2482,0.2465,0.2585,0.2551,0.2583,0.2605,0.2609,0.2443,0.2388,0.2515,0.2617,0.2615,0.2613,0.2611,0.2609,0,0.1726,0.1785,0.1817,0.1835,0.1913,0.1961,0.2021,0.2121,0.2179,0.2316,0.2382,0.2487,0.2566,0.2632,0.2687,0.2664,0.2803,0.2774,0.2634,0.2621,0.2738,0.2725,0.2859,0.2859,0.2858,0.2858,0.2858,0,0.1684,0.1716,0.181,0.1822,0.1882,0.1956,0.2038,0.2115,0.2237,0.2305,0.2425,0.2489,0.2624,0.2707,0.2732,0.2725,0.2849,0.265,0.2639,0.2748,0.2736,0.2747,0.2732,0.2861,0.286,0.286,0.2859,0,0.1615,0.1675,0.1715,0.1815,0.1858,0.1905,0.2039,0.2085,0.2231,0.2326,0.2382,0.2544,0.2647,0.2732,0.2846,0.277,0.2788,0.2751,0.2859,0.2851,0.2545,0.2533,0.2599,0.2593,0.2589,0.2585,0.2582,0,0.1576,0.1592,0.1698,0.1725,0.1777,0.1866,0.1914,0.2064,0.2119,0.2323,0.2354,0.2521,0.2599,0.2616,0.2722,0.2751,0.2718,0.2702,0.2615,0.254,0.2524,0.2518,0.2512,0.2575,0.2573,0.2572,0.2571,0,0.1497,0.1549,0.1583,0.1643,0.1699,0.1739,0.1838,0.1868,0.203,0.2192,0.2271,0.2331,0.2435,0.2511,0.2556,0.257,0.2699,0.2654,0.2662,0.258,0.2512,0.2499,0.2498,0.2555,0.2558,0.2559,0.256,0,0.1444,0.1438,0.1492,0.1536,0.1593,0.1585,0.1651,0.1721,0.1802,0.2039,0.2065,0.2236,0.2406,0.2418,0.2461,0.2462,0.2417,0.2327,0.2352,0.237,0.2256,0.2133,0.206,0,0,0,0,0,0.1373,0.135,0.1379,0.1391,0.1442,0.1476,0.158,0.1651,0.1827,0.1826,0.1943,0.2026,0.2102,0.2206,0.2161,0.2348,0.2415,0.2283,0.2321,0.2468,0.2486,0.2372,0,0,0,0,0,0,0.1314,0.133,0.133,0.1274,0.1261,0.1282,0.1337,0.1449,0.1473,0.1676,0.1738,0.19,0.2014,0.2108,0.2124,0.2151,0.2129,0.2405,0.2399,0.2458,0.2474,0.2489,0.2378,0,0,0,0,0]},{"header":{"parameterUnit":"m.s-1","parameterCategory":2,"la1":30.2991,"la2":30.254,"lo1":-89.0895,"lo2":-89.0444,"dy":0.0017,"dx":0.0017,"nx":28,"ny":28,"refTime":"2025-08-07T09:00:00:Z","depth":"4","parameterNumber":3,"parameterNumberName":"V-component_of_CURRENTS"},"data":[0,0,0,0,0,0,0,0,0,0,0,0,0,0,0,0,0,0,0,0,0,0,0,0,0,0,0,0,0,0,0,0,0,0,0,0,0,0,0,0,0,0,0,0,0,0,0,0,0,0,0,0,0,0,0,0,0,0,0.0058,0.0057,0,0.0039,0.0038,0.0038,0.0019,0.0018,0.0018,0.0018,-0.001,-0.0011,-0.0011,0,0,0,0,0,0,0,0,0,0,0,0,0,0.006,0.006,0.0058,0.0057,0.0057,0.0039,0.0038,0.0038,0.0019,0.0018,0.0018,0.0018,-0.001,-0.0011,-0.0011,0,0,0,0,0,0,0,0,0,0,0,0,0,0.0052,0.006,0.0058,0.0045,0.0044,0.0039,0.0038,0.0038,0.0019,0.0018,0.0018,0.0018,-0.001,-0.0011,-0.0011,-0.0008,0,0,-0.0014,-0.0014,0,0,0,0,0,0,0,0,0.0052,0.0052,0.0047,0.0046,0.0045,0.0031,0.0029,0.0022,0.0019,0.0028,0.0018,0.0017,0.0003,0.0001,-0.0002,-0.0009,-0.0011,-0.0014,-0.0014,-0.0014,-0.0015,0,0,0,0,0,0,0,0.0053,0.0052,0.005,0.0047,0.0046,0.0035,0.0033,0.0028,0.0018,0.0027,0.0026,0.0024,0.0002,-0.0001,-0.0002,-0.0011,-0.0014,-0.0014,-0.0015,-0.0015,-0.0017,-0.0017,0,0,0,0,0,0,0.0057,0.0053,0.0051,0.0049,0.0048,0.0035,0.0034,0.0036,0.0018,0.0015,0.0024,0.0023,0.0001,-0.0001,-0.0003,0.0014,-0.0014,-0.0015,-0.0016,-0.0017,-0.0017,-0.0016,0,0,0,0,0,0,0.0057,0.0057,0.0051,0.0051,0.0049,0.0036,0.0038,0.0035,0.0032,0.0016,0.0013,0.0024,0.0,-0.0002,-0.0005,0.0012,-0.0016,-0.0016,-0.0018,-0.0017,-0.0017,0.004,0,0,0,0,0,0,0.0057,0.0057,0.0061,0.0051,0.0049,0.0056,0.0038,0.0035,0.0032,0.003,0.0015,0.0012,-0.0,-0.0003,-0.0005,0.0011,-0.0017,-0.0018,-0.0018,-0.0017,0.0037,0.0042,0.0046,0,0,0,0,0,0.0057,0.0068,0.0061,0.0061,0.0055,0.0057,0.0056,0.0044,0.0032,0.0038,0.0025,0.0012,-0.0,-0.0003,-0.0006,0.001,-0.0019,-0.0018,-0.0017,0.0035,0.0041,0.0046,0,0,0,0,0,0,0.0071,0.0067,0.0059,0.0067,0.0065,0.0054,0.0057,0.0047,0.0041,0.0038,0.0018,0.0015,0.0019,0.0005,0.0001,0.001,-0.0012,-0.0011,0.0029,0.0034,0.0038,0.0049,-0.0017,0,0,0,0,0,0.0076,0.0082,0.0075,0.0082,0.0082,0.0069,0.0067,0.006,0.0053,0.0049,0.0038,0.0026,0.0021,0.0019,0.0012,0.0018,-0.0012,0.0025,0.003,0.0034,0.004,0.0008,0.0011,-0.0013,-0.0013,-0.0013,0,0,0.0082,0.0081,0.0084,0.0085,0.008,0.0093,0.0067,0.007,0.0083,0.0048,0.0059,0.0041,0.0025,0.0033,0.0034,0.0024,0.0023,0.0035,0.0039,0.0043,0.001,0.0012,0.0014,-0.0013,-0.0013,-0.0013,0,0,0.0105,0.0098,0.0114,0.0117,0.0115,0.011,0.0113,0.0105,0.0103,0.0108,0.0087,0.0079,0.0072,0.0066,0.0061,0.0084,0.0047,0.0081,0.0116,0.0086,0.0087,0.0089,0.0046,0.0043,0.0085,0.0085,0.0085,0,0.0113,0.0133,0.0119,0.0137,0.0147,0.0122,0.0146,0.0142,0.0135,0.0138,0.012,0.0105,0.009,0.01,0.0108,0.0096,0.0066,0.0099,0.0092,0.0092,0.0093,0.0049,0.0045,0.0088,0.0088,0.0088,0.0087,0,0.015,0.0166,0.0177,0.0193,0.0201,0.0217,0.0213,0.0215,0.0204,0.0198,0.0198,0.017,0.0162,0.0155,0.0141,0.0142,0.0114,0.01,0.008,0.0099,0.0051,0.0046,0.0092,0.0091,0.009,0.009,0,0,0.0169,0.0198,0.0203,0.0225,0.0234,0.0248,0.0266,0.0279,0.0295,0.0272,0.0285,0.0267,0.0242,0.0234,0.0208,0.0181,0.0154,0.0147,0.0144,0.0108,0.0075,0.0058,0.005,0.0137,0.0136,0.0136,0.0038,0,0.0204,0.0254,0.0259,0.0309,0.0335,0.0327,0.0352,0.0357,0.035,0.0354,0.0315,0.0318,0.0276,0.0273,0.0239,0.0179,0.0144,0.0181,0.0059,0.0055,0.0041,0.0045,0.0135,0.0034,0.0032,0.0031,0.0031,0,0.0241,0.0272,0.0328,0.0376,0.0387,0.0414,0.0446,0.0468,0.0461,0.0454,0.0433,0.0397,0.0362,0.032,0.0217,0.0242,0.0166,0.0108,0.0103,0.0066,0.003,0.0012,0.0021,0.0022,0.0022,0.0023,0.0024,0,0.0267,0.0322,0.0371,0.0387,0.0433,0.0459,0.0486,0.0499,0.0531,0.0518,0.0524,0.0465,0.0443,0.0341,0.0218,0.0218,0.0091,0.0073,-0.0019,-0.0022,-0.0003,-0.0003,-0.0005,-0.0005,-0.0004,-0.0004,-0.0004,0,0.0304,0.0344,0.039,0.0419,0.0488,0.0505,0.0571,0.0582,0.0608,0.0651,0.0583,0.0583,0.0447,0.0356,0.0235,0.0091,0.0099,-0.0013,-0.0044,0.0022,0.0025,-0.0007,-0.0006,-0.0008,-0.0007,-0.0006,-0.0006,0,0.0324,0.0352,0.0416,0.0476,0.0503,0.0554,0.064,0.0686,0.0697,0.0745,0.0745,0.0674,0.0553,0.0398,0.0229,0.0123,-0.0019,-0.0075,0.0,-0.0026,-0.0119,-0.0114,-0.0185,-0.0186,-0.0187,-0.0188,-0.0189,0,0.0339,0.0371,0.0458,0.0509,0.0542,0.0622,0.0682,0.0729,0.0782,0.0799,0.0824,0.0724,0.0651,0.0399,0.0228,-0.0018,-0.0052,-0.0134,-0.0121,-0.0112,-0.0136,-0.0129,-0.0123,-0.0191,-0.0191,-0.0191,-0.0192,0,0.0366,0.0395,0.045,0.0552,0.0628,0.072,0.0808,0.0852,0.0905,0.0909,0.0889,0.0756,0.0614,0.0408,0.0214,0.004,-0.0084,-0.0147,-0.0146,-0.0134,-0.0121,-0.0141,-0.0134,-0.0195,-0.0195,-0.0194,-0.0194,0,0.0386,0.0427,0.0501,0.0595,0.0692,0.0793,0.0839,0.0901,0.095,0.0964,0.0951,0.0792,0.0703,0.0437,0.026,0.0083,0.0037,-0.0021,-0.0027,-0.0025,0.0047,0.0089,0.0054,0,0,0,0,0,0.0405,0.0457,0.0543,0.0647,0.0744,0.0808,0.0913,0.0952,0.0992,0.0989,0.0977,0.0842,0.0582,0.0469,0.029,0.0225,-0.0003,0.0008,-0.0076,-0.0217,-0.0212,-0.0155,0,0,0,0,0,0,0.0419,0.0495,0.054,0.0672,0.075,0.0866,0.0937,0.0972,0.0973,0.0979,0.0846,0.0784,0.0531,0.0681,0.0281,0.0227,0.0147,-0.0112,-0.0116,-0.0219,-0.0215,-0.0212,-0.0152,0,0,0,0,0]}]]